Content
SEND FEEDBACK

Daily
Averages
Monthly
Summary
Mexico

CANCUN, QUINTANA ROO


Home > North America > Mexico > Quintana Roo
Elevation: 9 meters     Latitude: 21 09N     Longitude: 086 49W

WEATHER
 
SELECT A DAY
Number of Records: 167,246;   Date Range: 1/1/95 - 11/27/14
 
SHARE

PRINT THIS DATA

[ ← Previous Day ]
WEATHER ALMANAC - 6 JULY, 2013
[ Next Day → ]
[ °F ]   °C
Weather ElementAverageHighLow
Temperature27.7 °C31 °C (11:40 am)24 °C (6:08 pm)
Dewpoint24.1 °C25 °C (1:42 am)22 °C (5:40 pm)
Humidity81 %94 % (6:26 pm)66 % (12:40 pm)
Barometer937.7 hPa1015.9 hPa (10:47 pm) (7:00 pm)
Wind Speed15.4 km/h29.6 km/h (12:40 pm)
Weather ElementAverage
Visibility10.8 km
Wind DirectionESE (116 °)

Weather ElementTotal
Precipitation---
Cooling Degree Days9.2 (Base 18.3)
Growing Degree Days17.5 (Base 10)
Averaged from 25 records on 6 July, 2013
WEATHER CONDITIONS BREAKOUT
WIND DIRECTION BREAKOUT
WEATHER BY HOUR - 6 JULY, 2013
[ °F ]   °C
Local TimeTemperatureDewpointHumidityBarometerVisibilityWind DirectionWind SpeedGust SpeedPrecipitationEventsConditions
1:42 AM28 °C25 °C84 %1014.6 hPa11.3 kmSE (130°)16.7 km/hMostly Cloudy
2:43 AM27 °C24 °C84 %1013.9 hPa11.3 kmSE (130°)18.5 km/hScattered Clouds
3:45 AM28 °C24 °C79 %1013.9 hPa11.3 kmSE (130°)14.8 km/hScattered Clouds
4:41 AM27 °C25 °C89 %1013.5 hPa11.3 kmESE (120°)11.1 km/hScattered Clouds
5:45 AM27 °C24 °C84 %1013.9 hPa11.3 kmESE (120°)13 km/hMostly Cloudy
6:43 AM27 °C25 °C89 %1013.9 hPa11.3 kmESE (120°)7.4 km/hMostly Cloudy
7:44 AM29 °C25 °C79 %1014.9 hPa11.3 kmSE (130°)24.1 km/hMostly Cloudy
8:40 AM30 °C25 °C74 %1014.9 hPa11.3 kmSE (130°)24.1 km/hMostly Cloudy
9:47 AM30 °C25 °C74 %1015.2 hPa11.3 kmSE (140°)25.9 km/hMostly Cloudy
10:42 AM30 °C25 °C74 %1015.2 hPa11.3 kmSSE (150°)20.4 km/hMostly Cloudy
11:40 AM31 °C25 °C70 %1015.2 hPa11.3 kmSE (130°)22.2 km/hMostly Cloudy
12:40 PM31 °C24 °C66 %1015.2 hPa11.3 kmSE (140°)29.6 km/hMostly Cloudy
1:40 PM30 °C25 °C74 %1015.2 hPa11.3 kmSE (130°)20.4 km/hMostly Cloudy
2:41 PM30 °C24 °C70 %1014.6 hPa11.3 kmSE (130°)22.2 km/hMostly Cloudy
3:42 PM31 °C24 °C66 %1014.2 hPa11.3 kmSSE (150°)14.8 km/hMostly Cloudy
4:40 PM30 °C24 °C70 %1013.5 hPa11.3 kmESE (110°)16.7 km/hMostly Cloudy
5:40 PM26 °C22 °C78 %1014.6 hPa6.4 kmSE (140°)25.9 km/hRain-ThunderstormThunderstorms and Rain
6:08 PM24 °C22 °C89 %8 kmESE (120°)5.6 km/hRainLight Rain
6:26 PM25 °C24 °C94 %9.7 kmSE (140°)3.7 km/hOvercast
6:43 PM25 °C24 °C94 %1014.9 hPa9.7 kmCalmMostly Cloudy
7:40 PM26 °C24 °C89 %1015.2 hPa11.3 kmESE (110°)11.1 km/hMostly Cloudy
8:40 PM26 °C23 °C83 %1015.6 hPa11.3 kmEast (90°)9.3 km/hMostly Cloudy
9:48 PM25 °C23 °C89 %1014.9 hPa11.3 kmEast (90°)9.3 km/hMostly Cloudy
10:47 PM25 °C23 °C89 %1015.9 hPa11.3 kmEast (80°)9.3 km/hMostly Cloudy
11:46 PM25 °C24 °C94 %1015.2 hPa11.3 kmNE (40°)9.3 km/hMostly Cloudy
Hourly data recorded from MMUN, located 0 kilometers away from Cancun, Quintana Roo







STORIES FROM OUR PARTNERS